Virtual Norwegian is not affiliated with Norwegian Air Shuttle in any way.
If you are looking for the real "Norwegian", or you wish to book Norwegian flights, please visit Norwegian.com


We use cookies to ensure you get the best experience on our website.   ACCEPT

EVRA - RIX - Riga (Riga Intl)

General Info Alternate Airport
ICAO: EVRA Elevation: 34 ft ICAO: EYVI
IATA: RIX Country: Latvia IATA: VNO
City: Riga Charts: Log in to view charts City: Vilnius
Name: Riga Intl Hub: No Name Vilnius Intl
General Info
ICAO: EVRA
IATA: RIX
City: Riga
Name: Riga Intl
Elevation: 34 ft
Country: Latvia
Charts: Log in to view charts
Hub: No
 
Alternate Airport
ICAO: EYVI
IATA: VNO
City: Vilnius
Name: Vilnius Intl

Weather
210620Z 15007KT CAVOK 21/12 Q1010 NOSIG
Weather
210620Z 15007KT CAVOK 21/12 Q1010 NOSIG

Runway Info
18
Length ILS/LOC Course
3200 m 111.10 178
36
Length ILS/LOC Course
3200 m 108.10 358

NOTAMs
NOTAMs currently unavailable.
NOTAMs
NOTAMs currently unavailable

Route map
Airport
Airport (hub)